"datetime","# probes","# resolvers","can_ipv6","can_ipv6_prbs","can_tcp","can_tcp_prbs","can_tcp6","can_tcp6_prbs","does_ecs","does_ecs_prbs","does_flagday","does_flagday_prbs","does_rov4","does_rov4_prbs","does_rov6","does_rov6_prbs","does_qnamemin","doesnt_qnamemin","does_qnamemin_prbs","doesnt_qnamemin_prbs","does_nxdomain","doesnt_nxdomain","does_nxdomain_prbs","doesnt_nxdomain_prbs","has_ta_19036","hasnt_ta_19036","has_ta_19036_prbs","hasnt_ta_19036_prbs","has_ta_20326","hasnt_ta_20326","has_ta_20326_prbs","hasnt_ta_20326_prbs","can_rsamd5","cannot_rsamd5","broken_rsamd5","can_rsamd5_prbs","cannot_rsamd5_prbs","broken_rsamd5_prbs","can_dsa","cannot_dsa","broken_dsa","can_dsa_prbs","cannot_dsa_prbs","broken_dsa_prbs","can_rsasha1","cannot_rsasha1","broken_rsasha1","can_rsasha1_prbs","cannot_rsasha1_prbs","broken_rsasha1_prbs","can_dsansec3","cannot_dsansec3","broken_dsansec3","can_dsansec3_prbs","cannot_dsansec3_prbs","broken_dsansec3_prbs","can_rsansec3","cannot_rsansec3","broken_rsansec3","can_rsansec3_prbs","cannot_rsansec3_prbs","broken_rsansec3_prbs","can_rsasha256","cannot_rsasha256","broken_rsasha256","can_rsasha256_prbs","cannot_rsasha256_prbs","broken_rsasha256_prbs","can_rsasha512","cannot_rsasha512","broken_rsasha512","can_rsasha512_prbs","cannot_rsasha512_prbs","broken_rsasha512_prbs","can_eccgost","cannot_eccgost","broken_eccgost","can_eccgost_prbs","cannot_eccgost_prbs","broken_eccgost_prbs","can_ecdsa256","cannot_ecdsa256","broken_ecdsa256","can_ecdsa256_prbs","cannot_ecdsa256_prbs","broken_ecdsa256_prbs","can_ecdsa384","cannot_ecdsa384","broken_ecdsa384","can_ecdsa384_prbs","cannot_ecdsa384_prbs","broken_ecdsa384_prbs","can_ed25519","cannot_ed25519","broken_ed25519","can_ed25519_prbs","cannot_ed25519_prbs","broken_ed25519_prbs","can_ed448","cannot_ed448","broken_ed448","can_ed448_prbs","cannot_ed448_prbs","broken_ed448_prbs","can_gost","cannot_gost","broken_gost","can_gost_prbs","cannot_gost_prbs","broken_gost_prbs","can_sha384","cannot_sha384","broken_sha384","can_sha384_prbs","cannot_sha384_prbs","broken_sha384_prbs","is_internal","is_forwarding","is_external","is_internal_prbs","is_forwarding_prbs","is_external_prbs"
2017-06-20T23:59:59Z,129,198,149,105,195,129,133,97,37,38,0,0,0,0,0,0,0,198,0,129,6,192,3,127,0,0,0,0,0,0,0,0,3,191,2,8,125,14,7,189,0,13,126,0,8,188,0,25,123,0,5,191,0,13,126,0,6,190,0,24,124,0,6,190,0,24,124,0,6,190,0,24,124,0,0,198,0,6,129,0,1,197,0,22,128,0,1,197,0,22,128,0,0,198,0,0,129,0,0,198,0,0,129,0,1,197,0,19,128,1,0,198,0,21,129,0,123,58,17,82,44,22
2017-06-21T23:59:59Z,135,202,152,110,200,135,133,101,41,40,0,0,0,0,0,0,0,202,0,135,6,196,3,133,0,0,0,0,0,0,0,0,4,196,0,9,131,14,5,195,0,13,133,0,8,192,0,27,128,0,5,195,0,14,132,0,7,193,0,26,129,0,6,194,0,26,130,0,7,193,0,26,129,0,0,202,0,6,135,0,1,201,0,23,134,0,2,200,0,24,133,0,0,202,0,0,135,0,0,202,0,0,135,0,1,201,0,20,134,1,0,202,0,23,135,0,122,61,18,83,46,23
2017-06-22T23:59:59Z,136,204,154,111,200,136,135,102,42,42,0,0,0,0,0,0,0,204,0,136,6,198,3,134,0,0,0,0,0,0,0,0,3,199,0,7,133,14,7,195,0,15,132,0,8,194,0,27,129,0,5,197,0,14,133,0,7,195,0,26,130,0,9,193,0,28,128,0,8,194,0,27,129,0,0,204,0,6,136,0,1,203,0,24,136,0,1,203,0,23,135,0,0,204,0,0,136,0,0,204,0,0,136,0,0,204,0,19,136,1,0,204,0,23,136,0,123,60,18,84,46,24
2017-06-23T23:59:59Z,134,202,152,109,199,134,130,98,45,44,0,0,0,0,0,0,2,200,1,134,6,196,3,132,0,0,0,0,0,0,0,0,3,197,0,8,131,14,5,195,0,12,132,0,6,194,0,25,129,0,6,194,0,14,130,0,9,191,0,28,127,0,7,193,0,26,128,0,6,194,0,25,129,0,0,202,0,6,134,0,0,202,0,22,134,0,0,202,0,22,134,0,0,202,0,0,134,0,0,202,0,0,134,0,1,201,0,20,133,1,0,202,0,22,134,0,119,63,18,83,48,23
2017-06-24T23:59:58Z,134,201,152,108,198,134,135,102,39,39,0,0,0,0,0,0,0,201,0,134,6,195,3,132,0,0,0,0,0,0,0,0,3,196,0,7,131,13,5,194,0,13,132,0,9,190,0,26,127,0,5,194,0,14,131,0,6,193,0,25,129,0,7,192,0,25,128,0,8,191,0,26,127,0,0,201,0,6,134,0,1,200,0,22,133,0,2,199,0,23,132,0,0,201,0,0,134,0,0,201,0,0,134,0,2,199,0,20,133,1,0,201,0,22,134,0,122,59,17,84,45,22
2017-06-25T23:59:58Z,135,203,151,107,198,134,132,98,39,39,0,0,0,0,0,0,0,203,0,135,6,197,3,133,0,0,0,0,0,0,0,0,4,195,2,10,130,14,7,194,0,14,132,0,11,190,0,27,127,0,5,196,0,14,132,0,9,192,0,26,128,0,9,192,0,26,128,0,8,193,0,26,129,0,0,203,0,6,135,0,2,201,0,23,133,0,2,201,0,23,133,0,0,203,0,0,135,0,0,203,0,0,135,0,0,203,0,18,135,1,0,203,0,22,135,0,128,57,17,87,43,22
2017-06-26T23:59:57Z,139,209,156,111,205,138,134,102,38,41,0,0,0,0,0,0,0,209,0,139,6,203,3,137,0,0,0,0,0,0,0,0,4,203,0,9,135,14,5,202,0,14,137,0,6,201,0,27,134,0,5,202,0,15,136,0,8,199,0,28,132,0,8,199,0,29,132,0,9,198,0,29,131,0,0,209,0,6,139,0,1,208,0,24,138,0,1,208,0,24,138,0,0,209,0,0,139,0,0,209,0,0,139,0,0,209,0,19,139,1,0,209,0,24,139,0,129,60,18,87,47,23
2017-06-27T23:59:59Z,139,209,155,111,205,138,136,100,40,40,0,0,0,0,0,0,0,209,0,139,6,203,3,137,0,0,0,0,0,0,0,0,3,204,0,9,136,15,5,202,0,13,137,0,6,201,0,27,134,0,5,202,0,14,136,0,7,200,0,28,134,0,7,200,0,28,134,0,6,201,0,27,134,0,0,209,0,6,139,0,5,204,0,27,137,0,4,205,0,26,137,0,0,209,0,0,139,0,0,209,0,0,139,0,0,209,0,20,139,1,0,209,0,24,139,0,126,61,18,86,44,24
2017-06-28T23:59:59Z,138,205,156,112,201,137,139,104,41,41,0,0,0,0,0,0,2,203,1,138,3,202,2,137,0,0,0,0,0,0,0,0,5,198,0,10,133,15,6,197,0,15,135,0,7,196,0,28,132,0,5,198,0,15,135,0,6,197,0,28,133,0,7,196,0,28,132,0,7,196,0,29,132,0,0,205,0,6,138,0,1,204,0,25,137,0,2,203,0,26,136,0,0,205,0,0,138,0,0,205,0,0,138,0,0,205,0,20,138,1,0,205,0,25,138,0,121,63,18,86,47,24
2017-06-29T23:59:59Z,138,205,156,112,199,137,136,104,36,38,0,0,0,0,0,0,0,205,0,138,3,202,2,137,0,0,0,0,0,0,0,0,3,200,0,9,135,16,7,196,0,14,135,0,8,195,0,29,132,0,7,196,0,15,134,0,9,194,0,29,131,0,8,194,1,28,131,1,9,194,0,29,131,0,0,205,0,6,138,0,1,204,0,26,137,0,1,204,0,26,137,0,0,205,0,0,138,0,0,205,0,0,138,0,0,205,0,21,138,1,0,205,0,25,138,1,126,59,18,88,44,24
2017-06-30T23:59:59Z,139,206,157,113,202,138,137,103,41,42,0,0,0,0,0,0,2,204,1,139,3,203,2,138,0,0,0,0,0,0,0,0,5,200,0,11,135,16,6,198,0,14,136,0,6,198,0,28,134,0,5,199,0,14,136,0,9,195,0,30,131,0,8,195,1,29,131,1,9,195,0,30,131,0,0,206,0,6,139,0,0,206,0,25,139,0,0,206,0,25,139,0,0,206,0,0,139,0,0,206,0,0,139,0,0,206,0,21,139,1,0,206,0,25,139,1,126,60,18,86,46,24
2017-07-01T23:59:59Z,136,204,155,111,201,136,133,101,42,42,0,0,0,0,0,0,0,203,0,136,3,200,2,135,0,0,0,0,0,0,0,0,4,198,0,9,133,14,7,194,0,14,133,0,9,192,0,28,129,0,5,196,0,14,133,0,6,195,0,26,131,0,6,195,0,25,131,0,6,195,0,26,131,0,0,203,0,6,136,0,0,203,0,23,136,0,0,203,0,23,136,0,0,203,0,0,136,0,0,203,0,0,136,0,1,202,0,20,135,1,0,204,0,23,136,1,123,60,18,87,46,23
2017-07-02T23:59:56Z,138,206,156,112,202,137,132,99,41,43,0,0,0,0,0,0,0,206,0,138,3,203,2,137,0,0,0,0,0,0,0,0,4,200,1,9,134,16,6,197,1,14,134,1,7,197,0,28,132,0,5,199,0,14,135,0,6,198,0,27,133,0,6,198,0,27,133,0,6,198,0,27,133,0,0,206,0,6,138,0,2,204,0,25,137,0,2,204,0,25,137,0,0,206,0,0,138,0,0,206,0,0,138,0,0,206,0,20,138,1,0,206,0,24,138,1,125,60,18,87,45,24
2017-07-03T23:59:59Z,138,209,154,110,204,137,129,97,39,41,0,0,0,0,0,0,0,209,0,138,6,203,3,136,0,0,0,0,0,0,0,0,4,204,0,9,135,15,5,202,0,14,136,0,8,199,0,29,131,0,5,202,0,15,135,0,8,199,0,29,131,0,8,199,0,28,131,0,7,200,0,29,132,0,0,209,0,6,138,0,0,209,0,25,138,0,1,208,0,25,137,0,0,209,0,0,138,0,0,209,0,0,138,0,0,209,0,20,138,1,0,209,0,25,138,1,128,60,18,88,47,24
2017-07-04T23:59:58Z,138,210,156,110,206,137,133,98,42,42,0,0,0,0,0,0,2,208,1,138,6,204,3,136,0,0,0,0,0,0,0,0,4,203,2,10,133,16,5,203,0,13,136,0,6,202,0,26,133,0,5,203,0,14,135,0,10,198,0,29,130,0,9,199,0,27,131,0,9,199,0,28,131,0,0,210,0,6,138,0,2,208,0,24,137,0,0,210,0,23,138,0,0,210,0,0,138,0,0,210,0,0,138,0,0,210,0,19,138,1,0,210,0,23,138,1,129,61,18,90,48,23
2017-07-05T23:59:59Z,135,207,155,108,205,135,127,94,45,43,0,0,0,0,0,0,2,205,1,135,6,201,3,133,0,0,0,0,0,0,0,0,4,202,0,9,132,14,5,200,0,13,133,0,7,198,0,27,129,0,5,200,0,14,132,0,8,197,0,28,129,0,8,197,0,28,129,0,6,199,0,26,130,0,0,207,0,6,135,0,1,206,0,24,134,0,2,205,0,25,133,0,0,207,0,0,135,0,0,207,0,0,135,0,2,205,0,20,134,1,0,207,0,23,135,1,125,59,20,86,45,23
2017-07-06T23:59:59Z,137,210,158,110,208,137,136,100,47,43,0,0,0,0,0,0,0,210,0,137,6,204,3,135,0,0,0,0,0,0,0,0,5,204,0,10,133,13,5,203,0,13,135,0,6,202,0,25,132,0,5,203,0,14,134,0,7,201,0,26,132,0,7,201,0,26,132,0,8,200,0,27,131,0,0,210,0,6,137,0,0,210,0,22,137,0,0,210,0,22,137,0,0,210,0,0,137,0,0,210,0,0,137,0,1,209,0,19,137,1,0,210,0,22,137,1,130,57,20,88,44,23
2017-07-07T23:59:58Z,137,211,158,109,207,136,138,101,45,41,0,0,0,0,0,0,1,210,1,137,6,205,3,135,0,0,0,0,0,0,0,0,5,205,1,10,133,13,7,204,0,14,135,0,11,200,0,26,130,0,7,204,0,14,134,0,8,203,0,24,132,0,8,203,0,24,132,0,8,203,0,24,132,0,0,211,0,6,137,0,0,211,0,21,137,0,0,211,0,21,137,0,0,211,0,0,137,0,0,211,0,0,137,0,1,210,0,18,137,1,0,211,0,21,137,1,133,57,19,91,44,22
2017-07-08T23:59:59Z,137,211,159,110,205,135,140,101,42,40,0,0,0,0,0,0,2,209,1,137,6,205,3,135,0,0,0,0,0,0,0,0,5,206,0,10,134,13,8,203,0,15,134,0,8,203,0,25,132,0,7,204,0,14,134,0,11,200,0,27,131,0,9,202,0,25,131,0,10,201,0,26,131,0,0,211,0,6,137,0,0,211,0,21,137,0,0,211,0,21,137,0,0,211,0,0,137,0,0,211,0,0,137,0,3,208,0,21,135,1,0,211,0,22,137,1,136,53,19,93,42,22
2017-07-09T23:59:59Z,134,205,153,107,201,133,132,98,43,40,0,0,0,0,0,0,1,204,1,134,6,199,3,132,0,0,0,0,0,0,0,0,5,199,1,9,131,14,8,197,0,14,131,0,9,196,0,24,129,0,7,198,0,13,131,0,8,197,0,23,129,0,9,196,0,24,128,0,9,196,0,24,128,0,0,205,0,5,134,1,3,202,0,22,133,0,3,202,0,22,133,0,0,205,0,0,134,1,0,205,0,0,134,1,3,202,0,19,133,1,0,205,0,20,134,1,133,53,16,91,40,20
2017-07-10T23:59:59Z,139,213,158,111,209,138,137,102,43,41,0,0,0,0,0,0,1,212,1,139,6,207,3,137,0,0,0,0,0,0,0,0,6,207,0,10,135,14,10,203,0,15,135,0,13,200,0,28,131,0,9,204,0,14,135,0,12,201,0,28,132,0,12,201,0,28,132,0,12,201,0,28,132,0,0,213,0,6,139,0,3,210,0,24,137,0,3,210,0,24,137,0,0,213,0,0,139,0,0,213,0,0,139,0,2,211,0,20,138,1,0,213,0,22,139,1,135,58,18,93,43,22
2017-07-11T23:59:56Z,134,208,153,106,204,133,132,97,43,42,0,0,0,0,0,0,0,208,0,134,6,202,3,132,0,0,0,0,0,0,0,0,5,203,0,8,131,14,9,199,0,13,131,0,11,197,0,26,127,0,9,199,0,13,130,0,11,197,0,26,128,0,11,197,0,26,128,0,12,196,0,27,127,0,0,208,0,5,134,0,3,205,0,24,132,0,2,206,0,23,133,0,0,208,0,0,134,0,0,208,0,0,134,0,1,207,0,18,134,1,0,208,0,22,134,1,137,52,17,90,41,22
2017-07-12T23:59:59Z,137,210,158,110,205,136,135,99,45,42,0,0,0,0,0,0,0,210,0,137,4,206,2,135,0,0,0,0,0,0,0,0,6,204,0,9,133,14,10,200,0,15,132,0,12,198,0,27,129,0,8,202,0,13,133,0,10,200,0,26,131,0,10,200,0,26,131,0,12,198,0,27,130,0,1,209,0,6,136,0,3,207,0,23,135,0,3,207,0,23,135,0,0,210,0,0,137,0,0,210,0,0,137,0,4,206,0,21,135,1,0,210,0,22,137,1,131,60,18,88,46,22
2017-07-13T23:59:59Z,132,202,151,105,198,131,132,96,46,42,0,0,0,0,0,0,0,202,0,132,4,198,2,130,0,0,0,0,0,0,0,0,5,195,2,8,128,15,7,195,0,12,130,0,10,192,0,25,126,0,7,195,0,12,129,0,8,194,0,24,127,0,8,194,0,24,127,0,9,193,0,25,126,0,0,202,0,4,132,0,2,200,0,22,131,0,4,198,0,23,130,0,0,202,0,0,132,0,0,202,0,0,132,0,1,201,0,18,132,1,0,202,0,21,132,0,124,58,18,83,44,22
2017-07-14T23:59:59Z,135,206,155,107,200,133,135,98,44,41,0,0,0,0,0,0,2,204,1,135,5,201,3,133,0,0,0,0,0,0,0,0,5,200,1,8,132,14,7,198,1,12,133,1,11,194,1,26,128,1,7,198,1,12,132,1,9,196,1,25,129,1,9,196,1,25,129,1,10,195,1,26,128,1,0,205,1,4,135,1,1,204,1,22,134,1,1,204,1,22,134,1,0,205,1,0,135,1,0,205,1,0,135,1,3,202,1,19,133,2,0,206,0,21,135,0,129,58,18,86,44,22
2017-07-15T23:59:59Z,132,200,149,104,196,131,127,94,42,39,0,0,0,0,0,0,0,200,0,132,4,196,2,130,0,0,0,0,0,0,0,0,6,194,0,8,128,14,7,193,0,12,130,0,8,192,0,24,127,0,7,193,0,12,129,0,9,191,0,25,126,0,10,190,0,26,125,0,10,190,0,26,125,0,0,200,0,4,132,0,1,199,0,22,132,0,0,200,0,21,132,0,0,200,0,0,132,0,0,200,0,0,132,0,0,200,0,17,132,1,0,200,0,21,132,0,122,58,18,83,44,22
2017-07-16T23:59:59Z,132,201,150,104,197,131,131,94,42,40,0,0,0,0,0,0,0,201,0,132,4,197,2,130,0,0,0,0,0,0,0,0,5,196,0,8,129,14,7,194,0,12,130,0,10,191,0,25,126,0,7,194,0,12,129,0,9,192,0,25,126,0,9,192,0,25,126,0,9,192,0,25,126,0,0,201,0,4,132,0,3,198,0,23,130,0,3,198,0,23,130,0,0,201,0,0,132,0,0,201,0,0,132,0,4,197,0,20,129,1,0,201,0,21,132,0,125,55,19,85,42,22
2017-07-17T23:59:57Z,134,203,152,106,201,134,135,97,43,38,0,0,0,0,0,0,2,201,1,134,4,199,2,132,0,0,0,0,0,0,0,0,5,197,1,8,130,16,8,195,0,13,131,0,10,193,0,27,127,0,8,195,0,13,130,0,10,193,0,27,127,0,11,192,0,28,126,0,11,192,0,28,126,0,1,202,0,5,133,0,2,201,0,24,132,0,1,202,0,23,133,0,0,203,0,0,134,0,0,203,0,0,134,0,2,201,0,20,133,1,0,203,0,22,134,0,122,60,18,84,45,23
2017-07-18T23:59:58Z,131,197,146,103,195,131,130,94,40,39,0,0,0,0,0,0,0,197,0,131,4,193,2,129,0,0,0,0,0,0,0,0,3,194,0,7,129,15,5,192,0,11,130,0,6,191,0,24,127,0,5,192,0,11,129,0,6,191,0,24,127,0,6,191,0,25,127,0,6,191,0,24,127,0,0,197,0,4,131,0,2,195,0,23,130,0,3,194,0,24,130,0,0,197,0,0,131,0,0,197,0,0,131,0,2,195,0,19,130,1,0,197,0,23,131,0,118,59,18,80,45,23
2017-07-19T23:59:59Z,132,198,147,104,196,132,129,95,47,44,0,0,0,0,0,0,3,195,2,132,4,194,2,130,0,0,0,0,0,0,0,0,3,195,0,7,130,15,5,193,0,12,131,0,6,192,0,25,128,0,6,192,0,13,129,0,7,191,0,26,127,0,7,191,0,26,127,0,7,191,0,26,127,0,0,198,0,5,132,0,2,196,0,25,130,0,2,196,0,25,130,0,0,198,0,0,132,0,0,198,0,0,132,0,1,197,0,20,132,1,0,198,0,23,132,0,124,55,18,85,43,23
2017-07-20T23:59:59Z,129,194,147,103,191,129,132,96,43,41,0,0,0,0,0,0,2,192,1,129,1,193,1,128,0,0,0,0,0,0,0,0,6,188,0,9,125,15,11,183,0,15,124,0,11,183,0,27,122,0,9,185,0,13,125,0,10,184,0,26,123,0,10,184,0,26,123,0,10,184,0,26,123,0,0,194,0,4,129,0,3,191,0,24,128,0,2,192,0,23,128,0,0,194,0,0,129,0,0,194,0,0,129,0,0,194,0,18,129,1,0,194,0,23,129,0,123,53,18,84,41,23
2017-07-21T23:59:59Z,131,193,147,105,192,131,132,96,40,39,0,0,0,0,0,0,2,191,1,131,1,192,1,130,0,0,0,0,0,0,0,0,5,188,0,8,128,15,8,185,0,13,128,0,9,184,0,26,125,0,9,184,0,14,126,0,11,182,0,28,123,0,9,184,0,26,125,0,9,184,0,26,125,0,2,191,0,6,129,0,2,191,0,23,130,0,3,190,0,24,130,0,0,193,0,0,131,0,0,193,0,0,131,0,2,191,0,20,129,1,0,193,0,23,131,0,113,58,20,81,46,24
2017-07-22T23:59:58Z,132,196,150,106,193,131,135,98,40,38,0,0,0,0,0,0,1,195,1,132,1,195,1,131,0,0,0,0,0,0,0,0,6,187,3,11,126,17,10,186,0,16,128,0,14,182,0,30,123,0,7,189,0,14,129,0,9,187,0,27,126,0,9,187,0,27,126,0,9,187,0,27,126,0,0,196,0,5,132,0,1,195,0,25,131,0,2,194,0,25,130,0,0,196,0,0,132,0,0,196,0,0,132,0,2,194,0,21,130,1,0,196,0,24,132,0,116,58,20,82,46,24
2017-07-23T23:59:59Z,128,191,145,102,190,128,130,95,37,37,0,0,0,0,0,0,1,190,1,128,1,190,1,127,0,0,0,0,0,0,0,0,5,186,0,9,125,14,8,183,0,14,125,0,8,183,0,25,123,0,7,184,0,13,125,0,8,183,0,25,123,0,9,182,0,26,122,0,9,182,0,26,122,0,0,191,0,5,128,0,0,191,0,22,128,0,1,190,0,23,127,0,0,191,0,0,128,0,0,191,0,0,128,0,1,190,0,19,128,1,0,191,0,22,128,0,115,54,20,81,41,23
2017-07-24T23:59:59Z,132,201,152,105,198,131,133,95,38,37,0,0,0,0,0,0,1,200,1,132,4,195,2,129,0,0,0,0,0,0,0,0,3,197,1,8,129,15,7,194,0,13,130,0,9,192,0,26,126,0,7,194,0,13,129,0,10,191,0,26,126,0,10,191,0,26,126,0,11,190,0,27,125,0,0,201,0,5,132,0,4,197,0,25,130,0,3,198,0,24,130,0,0,201,0,0,132,0,0,201,0,0,132,0,1,200,0,18,132,1,0,201,0,22,132,0,123,56,20,83,43,23
2017-07-25T23:59:59Z,132,199,151,105,194,130,133,96,41,39,0,0,0,0,0,0,0,199,0,132,4,195,2,130,0,0,0,0,0,0,0,0,5,194,0,7,129,14,6,193,0,12,130,0,8,191,0,25,126,0,6,193,0,12,129,0,6,193,0,24,128,0,7,192,0,24,127,0,7,192,0,24,127,0,0,199,0,4,132,0,1,198,0,22,131,0,1,198,0,22,131,0,0,199,0,0,132,0,0,199,0,0,132,0,1,198,0,18,131,1,0,199,0,23,132,0,121,56,20,82,45,23
2017-07-26T23:59:56Z,130,196,152,105,192,129,133,97,43,41,0,0,0,0,0,0,1,195,1,130,4,192,2,128,0,0,0,0,0,0,0,0,4,192,0,9,127,15,4,192,0,12,129,0,5,191,0,25,126,0,4,192,0,12,128,0,6,190,0,26,125,0,6,190,0,26,125,0,4,192,0,25,127,0,0,196,0,5,130,0,1,195,0,25,129,0,0,196,0,24,130,0,0,196,0,0,130,0,0,196,0,0,130,0,1,195,0,20,130,1,0,196,0,24,130,0,120,55,19,82,44,23
2017-07-27T23:59:59Z,134,202,156,108,197,132,136,98,39,38,0,0,0,0,0,0,3,199,2,134,4,197,2,131,0,0,0,0,0,0,0,0,6,196,0,10,130,16,7,195,0,14,131,0,9,193,0,29,127,0,6,196,0,13,131,0,7,195,0,28,129,0,8,193,0,28,127,0,7,195,0,27,129,0,0,202,0,5,134,0,3,199,0,27,132,0,3,199,0,27,132,0,0,202,0,0,134,0,0,202,0,0,134,0,1,199,2,21,132,2,0,202,0,25,134,0,121,59,20,82,46,24
2017-07-28T23:59:59Z,133,203,155,106,198,131,135,96,39,38,0,0,0,0,0,0,0,203,0,133,4,197,2,130,0,0,0,0,0,0,0,0,6,197,0,9,129,15,9,194,0,13,129,0,8,195,0,25,128,0,9,194,0,13,128,0,9,194,0,26,127,0,10,193,0,27,126,0,11,192,0,28,126,0,1,202,0,5,132,0,3,200,0,24,132,0,3,200,0,24,131,0,0,203,0,0,133,0,0,203,0,0,133,0,2,201,0,20,131,1,0,203,0,22,133,0,121,60,20,83,45,24
2017-07-29T23:59:59Z,133,201,154,107,196,132,132,96,45,40,0,0,0,0,0,0,1,200,1,133,4,197,2,131,0,0,0,0,0,0,0,0,5,193,3,7,128,18,7,194,0,12,130,0,8,193,0,26,128,0,6,195,0,11,130,0,6,195,0,25,129,0,7,194,0,26,128,0,6,195,0,25,129,0,0,201,0,4,133,0,0,201,0,23,133,0,0,201,0,23,133,0,0,201,0,0,133,0,0,201,0,0,133,0,0,201,0,19,133,1,0,201,0,23,133,0,120,59,20,83,46,24
2017-07-30T23:59:59Z,137,207,159,110,203,136,140,101,43,41,0,0,0,0,0,0,1,206,1,137,4,203,2,135,0,0,0,0,0,0,0,0,5,202,0,9,134,17,6,201,0,12,135,0,7,200,0,27,132,0,6,201,0,12,134,0,9,198,0,29,130,0,7,200,0,27,132,0,6,201,0,27,133,0,0,207,0,4,137,0,5,202,0,28,133,0,5,202,0,28,133,0,0,207,0,0,137,0,0,207,0,0,137,0,2,205,0,22,135,1,0,207,0,25,137,0,127,58,20,86,45,25
2017-07-31T23:59:57Z,135,206,157,108,201,133,137,100,41,39,0,0,0,0,0,0,0,206,0,135,4,202,2,133,0,0,0,0,0,0,0,0,5,201,0,7,132,16,6,200,0,10,133,0,9,197,0,26,129,0,6,200,0,10,132,0,10,196,0,27,128,0,8,198,0,25,130,0,8,198,0,25,130,0,0,206,0,3,135,0,4,202,0,25,132,0,4,202,0,25,132,0,0,206,0,0,135,0,0,206,0,0,135,0,1,205,0,19,134,1,0,206,0,22,135,0,121,63,20,81,49,24
2017-08-01T23:59:59Z,133,200,151,106,196,132,129,95,39,38,0,0,0,0,0,0,1,199,1,133,4,196,2,131,0,0,0,0,0,0,0,0,5,194,1,7,129,16,6,194,0,11,131,0,7,193,0,24,128,0,6,194,0,11,130,0,6,194,0,24,129,0,7,193,0,24,128,0,8,192,0,25,127,0,0,200,0,3,133,0,1,199,0,22,132,0,2,198,0,23,131,0,0,200,0,0,133,0,0,200,0,0,133,0,2,198,0,18,132,1,0,200,0,22,133,0,118,60,20,81,48,23
2017-08-02T23:59:59Z,133,199,153,107,195,132,131,98,39,39,0,0,0,0,0,0,1,198,1,133,4,195,2,131,0,0,0,0,0,0,0,0,5,194,0,8,130,14,7,192,0,12,130,0,7,192,0,24,128,0,6,193,0,11,130,0,6,193,0,23,129,0,6,193,0,23,129,0,6,193,0,23,129,0,0,199,0,4,133,0,0,199,0,21,133,0,1,198,0,22,133,0,0,199,0,0,133,0,0,199,0,0,133,0,6,193,0,21,129,1,0,199,0,21,133,0,119,60,18,82,46,21
2017-08-03T23:59:59Z,132,199,148,105,195,131,128,96,37,38,0,0,0,0,0,0,1,198,2,132,4,195,4,130,0,0,0,0,0,0,0,0,3,195,1,7,129,18,5,194,0,11,130,1,6,193,0,26,127,2,4,195,0,10,130,0,5,194,0,25,128,1,5,194,0,25,128,1,6,193,0,26,128,1,0,199,0,4,132,2,1,198,0,23,131,2,1,198,0,23,131,1,0,199,0,0,132,1,0,199,0,0,132,1,2,197,0,20,131,2,0,199,0,23,132,1,113,64,20,79,49,24
2017-08-04T23:59:59Z,131,198,147,104,194,130,130,96,41,38,0,0,0,0,0,0,0,198,0,131,4,194,2,129,0,0,0,0,0,0,0,0,5,191,2,7,127,16,7,191,0,11,128,0,9,189,0,25,125,0,7,191,0,11,127,0,7,191,0,24,126,0,6,192,0,23,127,0,8,190,0,25,126,0,0,198,0,3,131,0,0,198,0,21,131,0,1,197,0,22,130,0,0,198,0,0,131,0,0,198,0,0,131,0,2,196,0,19,130,1,0,198,0,21,131,0,114,62,20,80,46,23
2017-08-05T23:59:59Z,127,194,144,101,190,126,126,93,31,32,0,0,0,0,0,0,0,194,0,127,4,190,2,125,0,0,0,0,0,0,0,0,5,189,0,7,124,15,9,185,0,14,122,0,8,186,0,26,121,0,6,188,0,11,124,0,9,185,0,26,121,0,6,188,0,24,123,0,7,187,0,25,123,0,0,194,0,3,127,0,1,193,0,22,126,0,0,194,0,22,127,0,0,194,0,0,127,0,0,194,0,0,127,0,3,191,0,19,125,1,0,194,0,22,127,0,118,54,20,80,41,23
2017-08-06T23:59:59Z,128,195,145,102,191,127,127,93,37,37,0,0,0,0,0,0,2,193,1,128,4,191,2,126,0,0,0,0,0,0,0,0,3,192,0,5,126,15,4,191,0,9,127,0,4,191,0,22,125,0,4,191,0,9,126,0,4,191,0,22,125,0,6,189,0,24,124,0,7,188,0,25,123,0,0,195,0,3,128,0,1,194,0,22,127,0,1,194,0,22,127,0,0,195,0,0,128,0,0,195,0,0,128,0,0,195,0,17,128,1,0,195,0,21,128,0,117,56,20,80,43,23
2017-08-07T23:59:58Z,133,201,151,107,196,131,136,100,41,39,0,0,0,0,0,0,0,201,0,133,4,197,2,131,0,0,0,0,0,0,0,0,6,192,3,8,127,17,8,193,0,13,129,0,12,189,0,28,124,0,7,194,0,12,129,0,12,189,0,28,124,0,11,190,0,28,125,0,12,189,0,28,124,0,0,201,0,3,133,0,9,192,0,28,127,0,8,193,0,27,127,0,0,201,0,0,133,0,0,201,0,0,133,0,8,193,0,24,128,1,0,201,0,23,133,0,116,60,23,80,46,25
2017-08-08T23:59:59Z,128,196,146,102,193,127,133,96,38,36,0,0,0,0,0,0,2,194,1,128,4,192,2,126,0,0,0,0,0,0,0,0,5,190,1,7,125,15,6,190,0,10,126,0,8,188,0,23,124,0,7,189,0,11,124,0,8,188,0,23,124,0,9,187,0,24,123,0,9,187,0,24,123,0,0,196,0,3,128,0,2,194,0,21,128,0,3,193,0,22,128,0,0,196,0,0,128,0,0,196,0,0,128,0,5,191,0,19,127,1,0,196,0,20,128,0,118,57,21,81,42,23
2017-08-09T23:59:57Z,129,196,148,105,194,129,128,94,40,39,0,0,0,0,0,0,0,196,0,129,4,192,2,127,0,0,0,0,0,0,0,0,4,188,4,6,124,16,6,190,0,10,126,0,11,185,0,25,121,0,5,191,0,9,126,0,8,188,0,23,123,0,6,190,0,21,125,0,8,188,0,23,123,0,1,195,0,3,128,0,2,194,0,20,128,0,2,194,0,20,128,0,0,196,0,0,129,0,0,196,0,0,129,0,6,190,0,19,126,1,0,196,0,20,129,0,118,56,20,80,44,22
2017-08-10T23:59:59Z,132,201,151,107,199,132,136,99,46,44,0,0,0,0,0,0,0,201,0,132,4,197,2,130,0,0,0,0,0,0,0,0,7,191,3,8,124,17,6,195,0,9,130,0,11,190,0,25,124,0,7,194,0,10,128,0,11,190,0,25,124,0,11,190,0,25,124,0,11,190,0,25,124,0,1,200,0,3,131,0,8,193,0,26,126,0,8,193,0,26,126,0,0,201,0,0,132,0,0,201,0,0,132,0,3,198,0,17,130,1,0,201,0,20,132,0,116,62,21,79,46,24
2017-08-11T23:59:59Z,132,204,154,107,202,132,140,100,45,42,0,0,0,0,0,0,0,204,0,132,4,198,2,129,0,0,0,0,0,0,0,0,3,194,7,5,126,18,4,200,0,8,131,0,11,193,0,24,125,0,4,200,0,8,130,0,13,191,0,25,124,0,12,192,0,24,125,0,12,192,0,24,125,0,0,204,0,2,132,0,9,195,0,24,127,0,9,195,0,24,127,0,0,204,0,0,132,0,0,204,0,0,132,0,7,197,0,19,129,1,0,204,0,18,132,0,118,61,23,80,45,24
2017-08-12T23:59:59Z,131,202,152,106,200,131,135,97,46,41,0,0,0,0,0,0,0,202,0,131,4,198,2,129,0,0,0,0,0,0,0,0,6,189,7,7,124,17,8,194,0,11,127,0,13,189,0,24,124,0,7,195,0,10,127,0,13,189,0,24,124,0,14,188,0,25,123,0,14,188,0,25,124,0,0,202,0,2,131,0,5,197,0,21,129,0,4,198,0,20,130,0,0,202,0,0,131,0,0,202,0,0,131,0,4,198,0,16,130,1,0,202,0,17,131,0,114,61,24,78,45,24
2017-08-13T23:59:59Z,128,197,147,103,194,127,131,95,45,41,0,0,0,0,0,0,0,197,0,128,4,193,2,126,0,0,0,0,0,0,0,0,6,189,2,7,123,15,6,191,0,9,126,0,9,188,0,23,122,0,7,190,0,10,124,0,9,188,0,23,122,0,9,188,0,23,122,0,9,188,0,23,122,0,0,197,0,2,128,0,4,193,0,22,126,0,4,193,0,22,125,0,0,197,0,0,128,0,0,197,0,0,128,0,4,193,0,18,125,1,0,197,0,19,128,0,110,62,22,75,46,24
2017-08-14T23:59:59Z,132,202,153,107,200,132,133,96,45,43,0,0,0,0,0,0,0,202,0,132,4,198,2,130,0,0,0,0,0,0,0,0,6,191,5,8,126,19,6,195,1,10,130,1,11,190,1,27,125,1,6,196,0,10,129,0,10,192,0,26,127,0,10,192,0,26,126,0,9,193,0,25,127,0,0,202,0,3,132,0,3,199,0,24,131,0,1,200,1,22,132,1,0,202,0,0,132,0,0,202,0,0,132,0,4,198,0,20,130,1,0,202,0,21,132,0,114,64,21,78,49,24
2017-08-15T23:59:59Z,133,202,153,108,199,133,134,98,42,40,0,0,0,0,0,0,0,202,0,133,4,198,2,131,0,0,0,0,0,0,0,0,7,194,1,8,128,16,8,194,0,12,129,0,11,191,0,27,125,0,7,195,0,11,129,0,10,192,0,26,126,0,9,193,0,25,127,0,9,193,0,25,127,0,1,201,0,4,132,0,3,199,0,23,131,0,2,200,0,22,132,0,0,202,0,0,133,0,0,202,0,0,133,0,3,199,0,20,131,1,0,202,0,21,133,0,117,62,21,82,47,24
2017-08-16T23:59:58Z,133,201,151,108,199,133,136,101,40,42,0,0,0,0,0,0,0,201,0,133,4,197,2,131,0,0,0,0,0,0,0,0,6,195,0,8,129,17,6,195,0,11,131,0,7,194,0,26,128,0,6,195,0,11,130,0,9,192,0,28,127,0,9,192,0,27,127,0,8,193,0,27,128,0,1,200,0,4,133,0,1,200,0,25,132,0,0,201,0,24,133,0,0,201,0,0,133,0,0,201,0,0,133,0,0,201,0,19,133,1,0,201,0,25,133,0,113,65,20,79,49,25
2017-08-17T23:59:59Z,135,204,153,109,202,135,137,100,40,39,0,0,0,0,0,0,2,202,1,135,4,200,2,133,0,0,0,0,0,0,0,0,5,196,3,7,130,18,6,198,0,11,133,0,10,194,0,27,128,0,6,198,0,11,132,0,10,194,0,28,128,0,8,196,0,26,130,0,7,197,0,26,130,0,0,204,0,3,135,0,1,203,0,24,134,0,1,203,0,24,134,0,0,204,0,0,135,0,0,204,0,0,135,0,3,201,0,20,134,1,0,204,0,24,135,0,119,61,21,84,47,25